| time (UTC) | temp C | wind direction | speed KPH | gust KPH | rain 1hr cm | rain 24hr cm | rain mn cm | humidity % | barometer mb |
| 20260906151917 | 14 | 322 | 0.0 | 0.0 | 0.00 | 0.00 | 0.18 | 92 | 1015.1 |
| 20260906150916 | 14 | 322 | 0.0 | 0.0 | 0.00 | 0.00 | 0.18 | 92 | 1015.0 |
| 20260906144914 | 14 | 322 | 0.0 | 0.0 | 0.00 | 0.00 | 0.15 | 92 | 1014.9 |
| 20260906143912 | 14 | 322 | 0.0 | 0.0 | 0.00 | 0.00 | 0.15 | 92 | 1014.7 |
| 20260906142911 | 14 | 322 | 0.0 | 0.0 | 0.00 | 0.00 | 0.15 | 92 | 1014.5 |
| 20260906141910 | 14 | 322 | 0.0 | 0.0 | 0.00 | 0.00 | 0.13 | 91 | 1014.5 |
| 20260906140910 | 14 | 322 | 0.0 | 0.0 | 0.00 | 0.00 | 0.13 | 91 | 1014.5 |
| 20260906135909 | 14 | 322 | 0.0 | 0.0 | 0.00 | 0.00 | 0.10 | 91 | 1014.4 |
| 20260906133907 | 14 | 322 | 0.0 | 0.0 | 0.00 | 0.00 | 0.08 | 90 | 1014.1 |
| 20260906132906 | 14 | 322 | 0.0 | 0.0 | 0.00 | 0.00 | 0.05 | 90 | 1014.0 |
| 20260906131905 | 14 | 322 | 0.0 | 0.0 | 0.00 | 0.00 | 0.05 | 89 | 1014.0 |
| 20260906124902 | 15 | 322 | 0.0 | 0.0 | 0.00 | 0.00 | 0.03 | 88 | 1014.0 |
| 20260906123901 | 15 | 322 | 0.0 | 0.0 | 0.00 | 0.00 | 0.03 | 87 | 1013.9 |
| 20260906121859 | 15 | 322 | 0.0 | 0.0 | 0.00 | 0.00 | 0.03 | 86 | 1014.0 |
| 20260906120858 | 15 | 322 | 0.0 | 0.0 | 0.00 | 0.00 | 0.03 | 86 | 1014.3 |
| 20260906114856 | 15 | 322 | 0.0 | 0.0 | 0.00 | 0.00 | 0.03 | 85 | 1014.3 |
| 20260906113854 | 15 | 322 | 0.0 | 0.0 | 0.00 | 0.00 | 0.03 | 85 | 1014.1 |
| 20260906112853 | 15 | 322 | 0.0 | 0.0 | 0.00 | 0.00 | 0.03 | 85 | 1014.1 |
| 20260906111853 | 15 | 322 | 0.0 | 0.0 | 0.00 | 0.00 | 0.03 | 84 | 1014.2 |
| 20260906110851 | 15 | 322 | 0.0 | 0.0 | 0.00 | 0.00 | 0.03 | 84 | 1014.1 |
| 20260906105850 | 15 | 322 | 0.0 | 0.0 | 0.00 | 0.00 | 0.03 | 84 | 1014.1 |
| 20260906104849 | 15 | 322 | 0.0 | 0.0 | 0.00 | 0.00 | 0.03 | 84 | 1014.0 |
| 20260906103848 | 15 | 322 | 0.0 | 0.0 | 0.00 | 0.00 | 0.03 | 84 | 1014.1 |
| 20260906102847 | 15 | 322 | 0.0 | 0.0 | 0.00 | 0.00 | 0.03 | 84 | 1014.0 |
| 20260906100845 | 15 | 322 | 0.0 | 0.0 | 0.00 | 0.00 | 0.03 | 84 | 1014.0 |
| 20260906095844 | 15 | 322 | 0.0 | 0.0 | 0.00 | 0.00 | 0.03 | 84 | 1013.9 |
| 20260906094843 | 15 | 322 | 0.0 | 0.0 | 0.00 | 0.00 | 0.03 | 84 | 1014.0 |
| 20260906093842 | 15 | 322 | 0.0 | 0.0 | 0.00 | 0.00 | 0.03 | 84 | 1014.0 |
| 20260906092841 | 15 | 322 | 0.0 | 0.0 | 0.00 | 0.00 | 0.03 | 84 | 1013.9 |
| 20260906091840 | 15 | 322 | 0.0 | 0.0 | 0.00 | 0.00 | 0.03 | 84 | 1013.9 |
| 20260906090839 | 16 | 322 | 0.0 | 0.0 | 0.00 | 0.00 | 0.03 | 84 | 1013.9 |
| 20260906085838 | 16 | 322 | 0.0 | 0.0 | 0.00 | 0.00 | 0.03 | 83 | 1014.0 |
| 20260906084837 | 16 | 322 | 0.0 | 0.0 | 0.00 | 0.00 | 0.03 | 83 | 1014.1 |
| 20260906083836 | 16 | 322 | 0.0 | 0.0 | 0.00 | 0.00 | 0.03 | 83 | 1013.9 |
| 20260906082835 | 16 | 322 | 0.0 | 0.0 | 0.00 | 0.00 | 0.03 | 83 | 1013.9 |
| 20260906081834 | 16 | 322 | 0.0 | 0.0 | 0.00 | 0.00 | 0.03 | 83 | 1013.9 |
| 20260906075832 | 16 | 323 | 0.0 | 0.0 | 0.00 | 0.00 | 0.03 | 82 | 1013.9 |
| 20260906074831 | 16 | 323 | 0.0 | 0.0 | 0.00 | 0.00 | 0.03 | 82 | 1013.9 |
| 20260906073830 | 16 | 323 | 0.0 | 0.0 | 0.00 | 0.00 | 0.03 | 81 | 1014.0 |
| 20260906072829 | 16 | 323 | 0.0 | 0.0 | 0.00 | 0.00 | 0.03 | 81 | 1014.0 |
| 20260906071828 | 16 | 323 | 0.0 | 0.0 | 0.00 | 0.00 | 0.03 | 81 | 1013.9 |
| 20260906070827 | 16 | 328 | 6.4 | 0.0 | 0.00 | 0.00 | 0.03 | 81 | 1014.0 |
| 20260906065826 | 16 | 331 | 1.6 | 0.0 | 0.00 | 0.00 | 0.03 | 80 | 1014.0 |
| 20260906064825 | 16 | 320 | 1.6 | 0.0 | 0.00 | 0.00 | 0.03 | 80 | 1014.0 |
| 20260906063824 | 16 | 321 | 0.0 | 0.0 | 0.00 | 0.00 | 0.03 | 79 | 1014.1 |
| 20260906061822 | 16 | 321 | 0.0 | 0.0 | 0.00 | 0.00 | 0.03 | 79 | 1014.1 |
| 20260906060821 | 16 | 321 | 0.0 | 0.0 | 0.00 | 0.00 | 0.03 | 78 | 1014.1 |
| 20260906055820 | 16 | 321 | 0.0 | 0.0 | 0.00 | 0.00 | 0.03 | 78 | 1014.1 |
| 20260906054819 | 16 | 321 | 0.0 | 0.0 | 0.00 | 0.00 | 0.03 | 78 | 1014.2 |
| 20260906053818 | 16 | 321 | 0.0 | 0.0 | 0.00 | 0.00 | 0.03 | 77 | 1014.3 |
| 20260906051816 | 16 | 323 | 0.0 | 0.0 | 0.00 | 0.00 | 0.03 | 76 | 1014.1 |
| 20260906050815 | 16 | 325 | 0.0 | 0.0 | 0.00 | 0.00 | 0.03 | 75 | 1014.3 |
| 20260906045814 | 17 | 325 | 0.0 | 0.0 | 0.00 | 0.00 | 0.03 | 75 | 1014.2 |
| 20260906044812 | 17 | 325 | 0.0 | 0.0 | 0.00 | 0.00 | 0.03 | 74 | 1014.3 |
| 20260906043812 | 17 | 328 | 0.0 | 0.0 | 0.00 | 0.00 | 0.03 | 74 | 1014.3 |
| 20260906040808 | 17 | 328 | 0.0 | 0.0 | 0.00 | 0.00 | 0.03 | 74 | 1014.5 |
| 20260906035808 | 17 | 328 | 0.0 | 0.0 | 0.00 | 0.00 | 0.03 | 72 | 1014.4 |
| 20260906034807 | 18 | 328 | 0.0 | 0.0 | 0.00 | 0.00 | 0.03 | 71 | 1014.3 |
| 20260906033806 | 18 | 328 | 0.0 | 0.0 | 0.00 | 0.00 | 0.03 | 70 | 1014.1 |
| 20260906032804 | 18 | 328 | 0.0 | 0.0 | 0.00 | 0.00 | 0.03 | 68 | 1014.0 |
| 20260906031803 | 19 | 328 | 0.0 | 0.0 | 0.00 | 0.00 | 0.03 | 66 | 1013.9 |
| 20260906030802 | 19 | 328 | 0.0 | 0.0 | 0.00 | 0.00 | 0.03 | 65 | 1013.9 |
| 20260906025802 | 20 | 328 | 0.0 | 0.0 | 0.00 | 0.00 | 0.03 | 62 | 1013.9 |
| 20260906024801 | 20 | 331 | 0.0 | 0.0 | 0.00 | 0.00 | 0.03 | 60 | 1013.8 |
| 20260906023759 | 20 | 332 | 0.0 | 0.0 | 0.00 | 0.00 | 0.03 | 58 | 1013.9 |
| 20260906022759 | 20 | 332 | 4.8 | 0.0 | 0.00 | 0.00 | 0.03 | 57 | 1013.9 |
| 20260906021758 | 20 | 332 | 0.0 | 0.0 | 0.00 | 0.00 | 0.03 | 57 | 1013.8 |
| 20260906020757 | 21 | 332 | 0.0 | 0.0 | 0.00 | 0.00 | 0.03 | 56 | 1013.9 |
| 20260906015755 | 21 | 333 | 0.0 | 0.0 | 0.00 | 0.00 | 0.03 | 55 | 1014.0 |
| 20260906014755 | 22 | 65 | 0.0 | 0.0 | 0.00 | 0.00 | 0.03 | 52 | 1014.0 |
| 20260906013753 | 22 | 66 | 0.0 | 0.0 | 0.00 | 0.00 | 0.03 | 50 | 1014.1 |
| 20260906012753 | 22 | 66 | 0.0 | 0.0 | 0.00 | 0.00 | 0.03 | 49 | 1014.0 |
| 20260906011752 | 23 | 309 | 0.0 | 0.0 | 0.00 | 0.00 | 0.03 | 50 | 1013.9 |
| 20260906004748 | 25 | 91 | 0.0 | 0.0 | 0.00 | 0.00 | 0.03 | 46 | 1014.0 |
| 20260906003747 | 25 | 95 | 0.0 | 0.0 | 0.00 | 0.00 | 0.03 | 45 | 1014.0 |
| 20260906001745 | 24 | 331 | 0.0 | 0.0 | 0.00 | 0.00 | 0.03 | 47 | 1013.9 |
| 20260906000745 | 24 | 331 | 0.0 | 0.0 | 0.00 | 0.00 | 0.03 | 48 | 1014.1 |
| 20260905235743 | 25 | 331 | 0.0 | 0.0 | 0.00 | 0.00 | 0.03 | 48 | 1014.0 |
| 20260905233741 | 23 | 331 | 0.0 | 0.0 | 0.00 | 0.00 | 0.03 | 52 | 1014.0 |
| 20260905232740 | 22 | 334 | 0.0 | 0.0 | 0.00 | 0.00 | 0.03 | 52 | 1014.2 |
| 20260905231739 | 22 | 334 | 0.0 | 0.0 | 0.00 | 0.00 | 0.03 | 53 | 1014.3 |
| 20260905230738 | 22 | 338 | 0.0 | 0.0 | 0.00 | 0.00 | 0.03 | 52 | 1014.4 |
| 20260905225737 | 22 | 338 | 0.0 | 0.0 | 0.00 | 0.00 | 0.03 | 54 | 1014.4 |
| 20260905224736 | 22 | 341 | 0.0 | 0.0 | 0.00 | 0.00 | 0.03 | 53 | 1014.4 |
| 20260905223735 | 22 | 244 | 0.0 | 0.0 | 0.00 | 0.00 | 0.03 | 52 | 1014.5 |
| 20260905221733 | 22 | 327 | 0.0 | 0.0 | 0.00 | 0.00 | 0.03 | 56 | 1014.7 |
| 20260905220732 | 22 | 328 | 0.0 | 0.0 | 0.00 | 0.00 | 0.03 | 51 | 1014.9 |
| 20260905215731 | 23 | 331 | 0.0 | 0.0 | 0.00 | 0.00 | 0.03 | 51 | 1014.8 |
| 20260905214730 | 23 | 306 | 0.0 | 0.0 | 0.00 | 0.00 | 0.03 | 49 | 1014.9 |
| 20260905213729 | 23 | 293 | 0.0 | 0.0 | 0.00 | 0.00 | 0.03 | 50 | 1015.0 |
| 20260905212728 | 23 | 338 | 0.0 | 0.0 | 0.00 | 0.00 | 0.03 | 52 | 1014.9 |
| 20260905205725 | 22 | 340 | 6.4 | 0.0 | 0.00 | 0.00 | 0.03 | 53 | 1015.2 |
| 20260905204724 | 22 | 344 | 0.0 | 0.0 | 0.00 | 0.00 | 0.03 | 54 | 1015.2 |
| 20260905203723 | 22 | 76 | 0.0 | 0.0 | 0.00 | 0.00 | 0.03 | 54 | 1015.2 |
| 20260905202722 | 22 | 335 | 0.0 | 0.0 | 0.00 | 0.00 | 0.03 | 58 | 1015.2 |
| 20260905201721 | 21 | 328 | 0.0 | 0.0 | 0.00 | 0.00 | 0.03 | 59 | 1015.2 |
| 20260905200720 | 21 | 80 | 0.0 | 0.0 | 0.00 | 0.00 | 0.03 | 61 | 1015.4 |
| 20260905195719 | 21 | 331 | 0.0 | 0.0 | 0.00 | 0.00 | 0.03 | 61 | 1015.4 |
| 20260905194718 | 21 | 331 | 0.0 | 0.0 | 0.00 | 0.00 | 0.03 | 60 | 1015.4 |
| 20260905193717 | 21 | 54 | 0.0 | 0.0 | 0.00 | 0.00 | 0.03 | 64 | 1015.6 |
| 20260905192716 | 21 | 343 | 0.0 | 0.0 | 0.00 | 0.00 | 0.03 | 63 | 1015.6 |
| 20260905191715 | 20 | 121 | 0.0 | 0.0 | 0.00 | 0.00 | 0.00 | 64 | 1015.8 |
| 20260905190714 | 20 | 120 | 0.0 | 0.0 | 0.00 | 0.00 | 0.00 | 66 | 1015.8 |
| 20260905185713 | 20 | 121 | 0.0 | 0.0 | 0.00 | 0.00 | 0.00 | 69 | 1015.9 |
| 20260905184712 | 20 | 317 | 0.0 | 0.0 | 0.00 | 0.00 | 0.00 | 67 | 1016.0 |
| 20260905183711 | 20 | 322 | 0.0 | 0.0 | 0.00 | 0.00 | 0.00 | 68 | 1016.1 |
| 20260905182710 | 20 | 328 | 0.0 | 0.0 | 0.00 | 0.00 | 0.00 | 70 | 1016.2 |
| 20260905181709 | 20 | 336 | 0.0 | 0.0 | 0.00 | 0.00 | 0.00 | 72 | 1016.2 |
| 20260905180708 | 19 | 345 | 0.0 | 0.0 | 0.00 | 0.00 | 0.00 | 73 | 1016.3 |
| 20260905175707 | 18 | 325 | 1.6 | 0.0 | 0.00 | 0.00 | 0.00 | 74 | 1016.3 |
| 20260905172704 | 17 | 329 | 0.0 | 0.0 | 0.00 | 0.00 | 0.00 | 82 | 1016.3 |
| 20260905171702 | 16 | 334 | 0.0 | 0.0 | 0.00 | 0.00 | 0.00 | 83 | 1016.4 |
| 20260905165700 | 15 | 55 | 0.0 | 0.0 | 0.00 | 0.00 | 0.00 | 89 | 1016.4 |
| 20260905164659 | 14 | 158 | 0.0 | 0.0 | 0.00 | 0.00 | 0.00 | 92 | 1016.4 |
| 20260905162657 | 14 | 172 | 0.0 | 0.0 | 0.00 | 0.00 | 0.00 | 93 | 1016.4 |
| 20260905161656 | 13 | 174 | 0.0 | 0.0 | 0.00 | 0.00 | 0.00 | 93 | 1016.5 |
| 20260905160656 | 14 | 175 | 0.0 | 0.0 | 0.00 | 0.00 | 0.00 | 94 | 1016.6 |
| 20260905155654 | 14 | 174 | 0.0 | 0.0 | 0.00 | 0.00 | 0.00 | 94 | 1016.5 |
| 20260905154654 | 14 | 174 | 0.0 | 0.0 | 0.00 | 0.00 | 0.00 | 94 | 1016.5 |
| 20260905153653 | 14 | 174 | 0.0 | 0.0 | 0.00 | 0.00 | 0.00 | 94 | 1016.5 |